TimePDT,TemperatureF,Dew PointF,Humidity,Sea Level PressureIn,VisibilityMPH,Wind Direction,Wind SpeedMPH,Gust SpeedMPH,PrecipitationIn,Events,Conditions,WindDirDegrees,DateUTC
12:53 AM,55.0,46.0,72,29.71,10.0,NW,4.6,-,N/A,,Clear,320,2013-10-09 07:53:00
1:53 AM,54.0,46.9,77,29.69,10.0,Calm,Calm,-,N/A,,Clear,0,2013-10-09 08:53:00
2:53 AM,52.0,46.9,83,29.68,8.0,Calm,Calm,-,N/A,,Clear,0,2013-10-09 09:53:00
3:53 AM,51.1,46.9,86,29.65,8.0,Calm,Calm,-,N/A,,Clear,0,2013-10-09 10:53:00
4:53 AM,52.0,46.0,80,29.65,10.0,Calm,Calm,-,N/A,,Clear,0,2013-10-09 11:53:00
5:53 AM,51.1,46.0,83,29.64,10.0,Calm,Calm,-,N/A,,Mostly Cloudy,0,2013-10-09 12:53:00
6:53 AM,51.1,46.0,83,29.64,10.0,Calm,Calm,-,N/A,,Scattered Clouds,0,2013-10-09 13:53:00
7:53 AM,52.0,46.0,80,29.64,9.0,WSW,6.9,-,N/A,,Partly Cloudy,250,2013-10-09 14:53:00
8:53 AM,55.0,46.9,74,29.65,10.0,NW,4.6,-,N/A,,Clear,310,2013-10-09 15:53:00
9:53 AM,59.0,46.9,64,29.65,10.0,NW,5.8,-,N/A,,Partly Cloudy,310,2013-10-09 16:53:00
10:53 AM,61.0,45.0,56,29.65,10.0,Variable,4.6,-,N/A,,Partly Cloudy,0,2013-10-09 17:53:00
11:53 AM,64.0,43.0,46,29.65,10.0,Variable,5.8,-,N/A,,Scattered Clouds,0,2013-10-09 18:53:00
12:53 PM,68.0,42.1,39,29.64,10.0,Variable,6.9,-,N/A,,Scattered Clouds,0,2013-10-09 19:53:00
1:53 PM,70.0,41.0,35,29.63,10.0,Variable,3.5,-,N/A,,Partly Cloudy,0,2013-10-09 20:53:00
2:53 PM,71.1,41.0,34,29.63,10.0,West,10.4,-,N/A,,Clear,260,2013-10-09 21:53:00
3:53 PM,72.0,41.0,33,29.64,10.0,West,9.2,-,N/A,,Scattered Clouds,280,2013-10-09 22:53:00
4:53 PM,69.1,44.1,40,29.65,10.0,West,12.7,-,N/A,,Scattered Clouds,270,2013-10-09 23:53:00
5:53 PM,66.9,42.1,40,29.67,10.0,West,10.4,-,N/A,,Clear,260,2013-10-10 00:53:00
6:53 PM,64.0,42.1,45,29.69,10.0,SW,5.8,-,N/A,,Clear,230,2013-10-10 01:53:00
7:53 PM,62.1,41.0,46,29.71,10.0,WSW,3.5,-,N/A,,Clear,240,2013-10-10 02:53:00
8:53 PM,60.1,42.1,51,29.73,10.0,SE,4.6,-,N/A,,Clear,140,2013-10-10 03:53:00
9:53 PM,57.0,41.0,55,29.74,10.0,NE,3.5,-,N/A,,Clear,50,2013-10-10 04:53:00
10:53 PM,53.1,39.9,61,29.75,10.0,East,5.8,-,N/A,,Clear,80,2013-10-10 05:53:00
11:53 PM,55.0,41.0,59,29.75,10.0,Calm,Calm,-,N/A,,Clear,0,2013-10-10 06:53:00